STARLINK-2180, 47762

Orbit data source: Space-Track

STARLINK-2180, 47762 is a payload satellite owned by SpaceX/Seattle (US) in LEO that was launched on Thu, 04 Mar 2021 UTC via an FALCON 9 launch vehicle from the Air Force Eastern Test Range (AFETR). Payload-class satellites include a variety of spacecraft equipped with specific instruments for various scientific and technological missions. These include communications satellites like Starlink; space stations such as the ISS; scientific satellites like the Hubble; Earth observation satellites from companies like Planet Labs, Umbra, and HawkEye 360; GPS; miniature CubeSats for education and research; and military/defense satellites.

Loading next visibility...
Identifier
47762, 2021-017AS
Orbit
LEO
Country
Flag of USUS
Related business
Manufacturer
SpaceX/Seattle
Mission
Operational Commercial Communications
Bus & Motor
STARLINK, Unknown motor
Mass
260 kg wet, ~248 kg dry
Launch date (UTC)
2021-03-04 (5 years ago)
Launch vehicle
FALCON 9
Launch site
Air Force Eastern Test Range (AFETR)
Object type
Payload
Rocket body
Debris
Shape & HBR
Box + 1 Pan, 10.1 m
Radar Cross Section
13.562 m², Large (>1 m²)

Expand to show TLE details & history
Last TLE update: 10 hours ago

TLE from 10 hours ago
0 STARLINK-2180
1 47762U 21017AS  25347.01903335  .00005351  00000-0  37789-3 0  9993
2 47762  53.0537 255.7069 0001325  93.4436 266.6705 15.06395436264472
Epoch: 2025-12-13T00:27Z
TLE epoch observation values (Epoch: 2025-12-13T00:27:24.481Z)
Latitude
0.00002°
Longitude
166.90259°
Altitude
548.158 km
Speed
7.589 km/s
True Right ascension
17h 02m 49s
True Declination
0° 00' 00"
Sunlit
Object was in daylight at epoch
Visualization orbit readout
Latitude
Unknown
Longitude
Unknown
Altitude
Unknown
Speed
Unknown
Apparent Right ascension
Unknown
Apparent Declination
Unknown
Sunlit
N/A
Visualization observer readout
Local Sidereal Time
09:14:37
Azimuth
Unknown
Elevation
Unknown
Doppler factor
Unknown
Orbital elements
Apogee altitude
548.414 km
Perigee altitude
546.579 km
Semi-major axis
6,925.633 km
Eccentricity
0.00013
Inclination
53.0537°
RAAN
255.7069°
Arg. of periapsis
93.4436°
True anomaly
266.65534°
Mean anomaly
266.6705°
Eccentric anomaly
266.66292°
Mean motion
3.76577 °/min
Orbital period
95.6 mins
BSTAR
0.00037789
Loading maneuver chart data...
Computing Atmospheric mass density...
Loading historical data...
Loading historical data...
Loading historical data...
Loading historical data...
Loading historical data...
Loading historical data...
Loading historical data...

Documentation

Showing up to 5 results
|